Погода в Усть-Уркиме

Россия / Амурская область     55°18′45″N   123°09′54″E
темп.,
°C
ветер,
м/с
пор.,
м/с
влажн.,
%
обл.,
%
осадки,
мм/ч
давл.,
гПа
погр.,
м
18 апреля, вс
вс1800:00−1ююв3584100 0.0 100369
03:00−2юв2288100 0.0 100328
06:00−4всв1195100 0.0 100413
09:000ссв2279100 0.0 1004168
12:00+4ссв2269100 0.0 1002590
15:00+5с3268100 0.0 1001694
18:00−2сз4897100 1.7 1004486
21:00−8ссз71493100 10.4 10121023
19 апреля, пн
пн1900:00−9ссз61290100 4.3 10141127
03:00−9ссз71571100 4.8 10171401
06:00−11сз6157566 0.0 10201349
09:00−9сз7126897 0.0 10211455
12:00−7сз71161100 0.1 10211977
15:00−6сз61061100 0.1 10202163
18:00−6сз511647 0.1 10201973
21:00−14з11895 0.1 102410
20 апреля, вт
вт2000:00−16юз22905 0.0 102412
03:00−16юз21905 0.0 102312
06:00−18ю11935 0.0 102310
09:00−8всв1269100 0.0 1017300
12:00−2в1357100 0.1 1013617
15:00+1ссз1459100 0.1 1011879
18:00−1с337619 0.0 1013281
21:00−7ю11925 0.0 101710
21 апреля, ср
ср2100:00−10ююв119446 0.0 101910
03:00−11в119623 0.0 101910
06:00−12вюв119797 0.0 102013
09:00−3всв2379100 0.0 1017244
12:00+2вюв4669100 0.0 1014807
15:00+6вюв2557100 0.0 1011912
18:00+3св3681100 0.0 1013185
21:00+1в3980100 0.0 1014310
22 апреля, чт
чт2200:00−2св2593100 0.0 1014137
03:00−1св2794100 0.1 1014348
06:00−2ссз1498100 0.1 1016158
09:00−2сз2593100 0.6 1018397
12:00−2сз3690100 0.8 1020574
15:00−2сз3894100 4.8 1023639
18:00−2ссз478499 2.0 1026793
21:00−7з229362 2.1 103014